Sun Valley, CA

4:59 PM PST on February 07, 2016 (GMT -0800)
Burbank-Glendale-Pasadena

Weather History for KBUR - December, 2012

Change the Weather History Date:

Friday, December 7, 2012

  Actual Average Record
Temperature  
Mean Temperature 61 °F 54 °F  
Max Temperature 72 °F 67 °F 90 °F (1940)
Min Temperature 49 °F 41 °F 29 °F (1978)
Degree Days  
Heating Degree Days 4 11  
Month to date heating degree days 27 71  
Since 1 July heating degree days 152 299  
Cooling Degree Days 0 0  
Month to date cooling degree days 0 0  
Year to date cooling degree days 1672 1245  
Growing Degree Days 10 (Base 50)    
Moisture  
Dew Point 48 °F    
Average Humidity 65    
Maximum Humidity 86    
Minimum Humidity 44    
Precipitation  
Precipitation 0.00 in 0.06 in 3.00 in (1992)
Month to date precipitation 0.24 0.39  
Year to date precipitation 6.61 15.30  
Since 1 July precipitation 1.13  
Sea Level Pressure  
Sea Level Pressure 29.91 in    
Wind  
Wind Speed 2 mph (SE)    
Max Wind Speed 9 mph    
Max Gust Speed 12 mph    
Visibility 8 miles    
Events      
T = Trace of Precipitation, MM = Missing Value Source: NWS Daily Summary

Daily Weather History Graph

Daily Weather History Graph

Search for Another Location

Airport or City:

Trip Planner

Search our weather history database for the weather conditions in past years. The results will help you decide how hot, cold, wet, or windy it might be!

Date:

Astronomy

Dec. 07, 2012 Rise Set
Actual Time 6:46 AM PST 4:43 PM PST
Civil Twilight 6:18 AM PST 5:11 PM PST
Nautical Twilight 5:47 AM PST 5:42 PM PST
Astronomical Twilight 5:17 AM PST 6:12 PM PST
Moon 12:25 AM PST (12/7) 12:30 PM PST (12/7)
Length of Visible Light 10h 52m
Length of Day
9h 57m
Last Quarter, 37% of the Moon is Illuminated
Dec 7
Last Quarter
Dec 13
New
Dec 19
First Quarter
Dec 28
Full
Jan 4
Last Quarter

Hourly Weather History & Observations

Time (PST) Temp. Dew Point Humidity Pressure Visibility Wind Dir Wind Speed Gust Speed Precip Events Conditions
12:53 AM 53.1 °F 48.9 °F 86% 29.90 in 5.0 mi Calm Calm - N/A   Clear
1:53 AM 52.0 °F 46.9 °F 83% 29.90 in 8.0 mi Calm Calm - N/A   Clear
2:53 AM 50.0 °F 46.0 °F 86% 29.89 in 9.0 mi Calm Calm - N/A   Clear
3:53 AM 52.0 °F 46.0 °F 80% 29.88 in 10.0 mi Calm Calm - N/A   Clear
4:53 AM 48.9 °F 45.0 °F 86% 29.89 in 9.0 mi North 3.5 mph - N/A   Clear
5:53 AM 48.9 °F 45.0 °F 86% 29.91 in 8.0 mi North 3.5 mph - N/A   Clear
6:53 AM 48.9 °F 45.0 °F 86% 29.92 in 7.0 mi Calm Calm - N/A   Clear
7:53 AM 53.1 °F 46.9 °F 80% 29.93 in 7.0 mi Calm Calm - N/A   Clear
8:53 AM 57.0 °F 48.0 °F 72% 29.95 in 10.0 mi Calm Calm - N/A   Clear
9:53 AM 62.1 °F 48.9 °F 62% 29.95 in 10.0 mi SE 3.5 mph - N/A   Clear
10:53 AM 66.0 °F 50.0 °F 56% 29.94 in 7.0 mi SE 3.5 mph - N/A   Clear
11:53 AM 70.0 °F 50.0 °F 49% 29.91 in 9.0 mi Variable 4.6 mph - N/A   Clear
12:53 PM 71.1 °F 48.9 °F 45% 29.90 in 10.0 mi Variable 5.8 mph - N/A   Clear
1:53 PM 71.1 °F 50.0 °F 47% 29.88 in 8.0 mi South 4.6 mph - N/A   Clear
2:53 PM 70.0 °F 51.1 °F 51% 29.88 in 8.0 mi South 8.1 mph - N/A   Clear
3:53 PM 66.9 °F 52.0 °F 59% 29.88 in 6.0 mi SE 8.1 mph - N/A   Haze
4:53 PM 64.9 °F 52.0 °F 63% 29.89 in 5.0 mi Variable 3.5 mph - N/A   Haze
5:53 PM 63.0 °F 52.0 °F 67% 29.90 in 6.0 mi Calm Calm - N/A   Haze
6:53 PM 60.1 °F 52.0 °F 75% 29.91 in 5.0 mi Calm Calm - N/A   Haze
7:53 PM 60.1 °F 48.9 °F 67% 29.92 in 5.0 mi Calm Calm - N/A   Haze
8:53 PM 55.9 °F 48.9 °F 77% 29.92 in 6.0 mi Calm Calm - N/A   Haze
9:53 PM 55.0 °F 45.0 °F 69% 29.91 in 10.0 mi Calm Calm - N/A   Clear
10:53 PM 52.0 °F 42.1 °F 69% 29.92 in 10.0 mi Calm Calm - N/A   Clear
11:53 PM 51.1 °F 39.0 °F 63% 29.91 in 10.0 mi Calm Calm - N/A   Clear